Weather History for Elefsis, Greece

Change the Weather History Date:

Monday, January 16, 2012

  Actual Average Record
Temperature  
Mean Temperature 38 °F -  
Max Temperature 42 °F 55 °F 62 °F (2007)
Min Temperature 33 °F 39 °F 33 °F (2012)
Degree Days  
Heating Degree Days 28    
Moisture  
Dew Point 18 °F    
Average Humidity 44    
Maximum Humidity 87    
Minimum Humidity 31    
Precipitation  
Precipitation 0.00 in - - ()
Sea Level Pressure  
Sea Level Pressure 30.05 in    
Wind  
Wind Speed 7 mph ()    
Max Wind Speed 14 mph    
Max Gust Speed -    
Visibility 6.2 miles    
Events      
Averages and records for this station are not official NWS values.
T = Trace of Precipitation, MM = Missing Value Source: Averaged Metar Reports

Daily Weather History Graph

Daily Weather History Graph

Search for Another Location

Airport:

Trip Planner

Search our weather history database for the weather conditions in past years. The results will help you decide how hot, cold, wet, or windy it might be!

Date:

Astronomy

Jan. 16, 2012 Rise Set
Actual Time 7:40 AM EET 5:30 PM EET
Civil Twilight 7:11 AM EET 5:59 PM EET
Nautical Twilight 6:39 AM EET 6:31 PM EET
Astronomical Twilight 6:07 AM EET 7:03 PM EET
Moon 12:29 AM EET (1/16) 11:31 AM EET (1/16)
Length of Visible Light 10h 47m
Length of Day
9h 49m
Waning Gibbous, 50% of the Moon is Illuminated
Jan 16
Waning Gibbous
Jan 23
New
Jan 31
First Quarter
Feb 7
Full
Feb 14
Last Quarter

Hourly Weather History & Observations

Time (EET) Temp. Windchill Dew Point Humidity Pressure Visibility Wind Dir Wind Speed Gust Speed Precip Events Conditions
12:20 AM 39.2 °F - 24.8 °F 56% 29.98 in 6.2 mi Calm Calm - N/A   Mostly Cloudy
12:50 AM 39.2 °F 35.0 °F 24.8 °F 56% 29.98 in 6.2 mi NNW 5.8 mph - N/A   Scattered Clouds
1:20 AM 39.2 °F 33.0 °F 24.8 °F 56% 29.98 in 6.2 mi NNW 9.2 mph - N/A   Scattered Clouds
1:50 AM 37.4 °F 30.3 °F 26.6 °F 65% 29.98 in 6.2 mi NNW 10.4 mph - N/A   Scattered Clouds
2:20 AM 37.4 °F 30.3 °F 26.6 °F 65% 29.98 in 6.2 mi NW 10.4 mph - N/A   Scattered Clouds
2:50 AM 37.4 °F 30.3 °F 24.8 °F 60% 29.98 in 6.2 mi NNW 10.4 mph - N/A   Scattered Clouds
3:20 AM 37.4 °F 30.3 °F 23.0 °F 56% 29.98 in 6.2 mi NNW 10.4 mph - N/A   Scattered Clouds
3:50 AM 37.4 °F 33.8 °F 33.8 °F 87% 29.98 in - WNW 4.6 mph - N/A   Clear
4:20 AM 35.6 °F 28.0 °F 21.2 °F 56% 29.98 in 6.2 mi NNW 10.4 mph - N/A   Partly Cloudy
4:50 AM 35.6 °F 28.0 °F 21.2 °F 56% 29.98 in 6.2 mi NNW 10.4 mph - N/A   Partly Cloudy
5:20 AM 35.6 °F 28.0 °F 19.4 °F 52% 29.98 in 6.2 mi NNW 10.4 mph - N/A   Scattered Clouds
5:50 AM 35.6 °F 28.0 °F 19.4 °F 52% 30.01 in 6.2 mi NNW 10.4 mph - N/A   Scattered Clouds
6:20 AM 35.6 °F 28.0 °F 19.4 °F 52% 30.01 in 6.2 mi NNW 10.4 mph - N/A   Partly Cloudy
6:50 AM 35.6 °F 28.0 °F 15.8 °F 44% 30.01 in 6.2 mi NNW 10.4 mph - N/A   Partly Cloudy
7:20 AM 33.8 °F 25.8 °F 15.8 °F 48% 30.01 in 6.2 mi NNW 10.4 mph - N/A   Partly Cloudy
7:50 AM 33.8 °F 28.6 °F 14.0 °F 44% 30.04 in 6.2 mi WNW 5.8 mph - N/A   Partly Cloudy
8:20 AM 35.6 °F 29.2 °F 14.0 °F 41% 30.04 in 6.2 mi NW 8.1 mph - N/A   Partly Cloudy
8:50 AM 35.6 °F 28.6 °F 15.8 °F 44% 30.06 in 6.2 mi NW 9.2 mph - N/A   Partly Cloudy
9:20 AM 37.4 °F 30.3 °F 12.2 °F 36% 30.06 in 6.2 mi NW 10.4 mph - N/A   Partly Cloudy
9:50 AM 39.2 °F 32.5 °F 14.0 °F 36% 30.06 in 6.2 mi NW 10.4 mph - N/A   Partly Cloudy
10:20 AM 39.2 °F 31.2 °F 14.0 °F 36% 30.06 in 6.2 mi NNW 13.8 mph - N/A   Partly Cloudy
10:50 AM 41.0 °F 34.7 °F 14.0 °F 33% 30.06 in 6.2 mi NNW 10.4 mph - N/A   Partly Cloudy
11:20 AM 41.0 °F 35.8 °F 14.0 °F 33% 30.06 in 6.2 mi NNW 8.1 mph - N/A   Partly Cloudy
11:50 AM 41.0 °F 34.7 °F 15.8 °F 36% 30.06 in 6.2 mi NNW 10.4 mph - N/A   Partly Cloudy
12:20 PM 41.0 °F 34.3 °F 15.8 °F 36% 30.06 in 6.2 mi NNW 11.5 mph - N/A   Partly Cloudy
12:50 PM 41.0 °F 34.3 °F 15.8 °F 36% 30.04 in 6.2 mi NNW 11.5 mph - N/A   Partly Cloudy
1:20 PM 42.8 °F 37.0 °F 15.8 °F 34% 30.04 in 6.2 mi NNW 10.4 mph - N/A   Partly Cloudy
1:50 PM 42.8 °F 37.0 °F 15.8 °F 34% 30.04 in 6.2 mi North 10.4 mph - N/A   Partly Cloudy
2:20 PM 42.8 °F 38.0 °F 15.8 °F 34% 30.04 in 6.2 mi NNW 8.1 mph - N/A   Partly Cloudy
2:50 PM 42.8 °F 36.6 °F 14.0 °F 31% 30.04 in 6.2 mi NNW 11.5 mph - N/A   Partly Cloudy
3:20 PM 42.8 °F 37.0 °F 14.0 °F 31% 30.04 in 6.2 mi NNW 10.4 mph - N/A   Partly Cloudy
3:50 PM 41.0 °F 34.7 °F 14.0 °F 33% 30.04 in 6.2 mi NNW 10.4 mph - N/A   Partly Cloudy
5:20 PM 39.2 °F 33.0 °F 19.4 °F 45% 30.06 in 6.2 mi North 9.2 mph - N/A   Partly Cloudy
5:50 PM 39.2 °F 33.6 °F 17.6 °F 42% 30.09 in 6.2 mi North 8.1 mph - N/A   Partly Cloudy
6:20 PM 39.2 °F 34.2 °F 17.6 °F 42% 30.09 in 6.2 mi NNW 6.9 mph - N/A   Scattered Clouds
6:50 PM 39.2 °F 34.2 °F 14.0 °F 36% 30.09 in 6.2 mi NNW 6.9 mph - N/A   Scattered Clouds
7:50 PM 37.4 °F 32.8 °F 14.0 °F 38% 30.12 in 6.2 mi NW 5.8 mph - N/A   Mostly Cloudy
8:20 PM 37.4 °F 33.8 °F 14.0 °F 38% 30.12 in 6.2 mi NW 4.6 mph - N/A   Mostly Cloudy
8:50 PM 37.4 °F 32.8 °F 14.0 °F 38% 30.12 in 6.2 mi NNW 5.8 mph - N/A   Scattered Clouds
9:20 PM 37.4 °F 34.9 °F 14.0 °F 38% 30.12 in 6.2 mi Variable 3.5 mph - N/A   Scattered Clouds
9:50 PM 37.4 °F 32.1 °F 15.8 °F 41% 30.12 in 6.2 mi NW 6.9 mph - N/A   Partly Cloudy
10:20 PM 35.6 °F 29.9 °F 15.8 °F 44% 30.12 in 6.2 mi NW 6.9 mph - N/A   Partly Cloudy
10:50 PM 37.4 °F 33.8 °F 14.0 °F 38% 30.12 in 6.2 mi NW 4.6 mph - N/A   Partly Cloudy
11:20 PM 37.4 °F 33.8 °F 14.0 °F 38% 30.12 in 6.2 mi NW 4.6 mph - N/A   Partly Cloudy
11:50 PM 35.6 °F 32.8 °F 15.8 °F 44% 30.12 in 6.2 mi WNW 3.5 mph - N/A   Partly Cloudy